Regional Weather Roundup
Issued by NWS

Home | Current Version | Previous Version | Graphics & Text | Print | Product List | Glossary On
Versions: 1 2 3 4 5 6 7 8 9 10 11 12 13 14 15 16 17 18 19 20 21 22 23 24 25 26 27 28 29 30 31 32 33 34 35 36 37 38 39 40 41 42 43 44 45 46 47 48 49 50
000
ASUS43 KFSD 282302
RWRSD

WEATHER ROUNDUP FOR SOUTH DAKOTA
NATIONAL WEATHER SERVICE SIOUX FALLS SD
600 PM CDT THU AUG 28 2014

NOTE: "FAIR" INDICATES FEW OR NO CLOUDS BELOW 12,000 FEET WITH NO
SIGNIFICANT WEATHER AND/OR OBSTRUCTIONS TO VISIBILITY.


SDZ001>005-009-010-012>017-290000-
NORTHWEST AND NORTH CENTRAL SOUTH DAKOTA

CITY           SKY/WX    TMP DP  RH WIND       PRES   REMARKS
BUFFALO          N/A     84  46  26 NW6       29.83F
FAITH            N/A     75  65  70 SE5       29.90F
MOBRIDGE       CLOUDY    70  68  93 CALM      29.85S
$$

SDZ012>016-024>037-041>051-057-063-072>074-290000-
SOUTHWEST AND SOUTH CENTRAL SOUTH DAKOTA

CITY           SKY/WX    TMP DP  RH WIND       PRES   REMARKS
RAPID CTY ARPT CLOUDY    79  52  38 VRB3      29.94F
PIERRE         PTSUNNY   73  67  81 N12       29.84F
CUSTER         PTSUNNY   66  54  65 S5        30.07F
ELLSWORTH AFB  CLOUDY    76  55  48 SW6       29.93F
PHILIP         CLOUDY    77  61  57 NW6       29.88F
PINE RIDGE     CLOUDY    68  57  68 W7        29.97F
WINNER         CLOUDY    77  64  64 NW7       29.85S
$$

SDZ004>011-016>023-039-040-290000-
NORTHEAST SOUTH DAKOTA

CITY           SKY/WX    TMP DP  RH WIND       PRES   REMARKS
ABERDEEN       HVY RAIN  68  68 100 NE6       29.86F VSB 1
WATERTOWN      CLOUDY    67  65  93 E5        29.87F
SISSETON         N/A     66  66 100 SE8       29.89S
$$

SDZ017-020-022-023-036>040-048>070-290000-
SOUTHEAST SOUTH DAKOTA

CITY           SKY/WX    TMP DP  RH WIND       PRES   REMARKS
SIOUX FALLS    CLOUDY    72  69  90 E9        29.85F
HURON          PTSUNNY   73  68  84 E10       29.82F
CHAMBERLAIN    PTSUNNY   76  68  77 N8        29.82F
MITCHELL       CLOUDY    76  71  85 E8        29.81F
YANKTON        CLOUDY    79  73  83 E6        29.80F
$$

ABBREVIATIONS USED IN REMARKS
   TC - TEMPERATURE IN CELSIUS
  WCI - WIND CHILL INDEX
   HX - HEAT INDEX
  VSB - VISIBILITY




USA.gov is the U.S. government's official web portal to all federal, state and local government web resources and services.